#�ϑ�����,���ϕ���,���ϕ���,�ő啗��,�ő啗����������,�ő�u�ԕ���,�ő�u�ԕ�����������
#(�N����),(m/s)   ,(16����),(m/s)   ,(16����)        ,(m/s)       ,(16����)            
2013/5/19 0:01,3.3,3,3.3,3,6.9,4
2013/5/19 0:02,3.2,3,3.2,3,4.4,5
2013/5/19 0:03,3.1,3,3.2,3,4.2,3
2013/5/19 0:04,3.1,3,3.2,3,4.9,3
2013/5/19 0:05,3.3,3,3.3,3,6.9,3
2013/5/19 0:06,3.4,3,3.4,3,6.2,3
2013/5/19 0:07,3.4,4,3.5,3,4.9,4
2013/5/19 0:08,3.5,4,3.5,3,5.5,2
2013/5/19 0:09,3.7,4,3.7,4,6.5,3
2013/5/19 0:10,3.8,4,3.8,4,6.9,3
2013/5/19 0:11,3.7,3,3.8,4,6.5,3
2013/5/19 0:12,3.8,3,3.8,4,5.5,4
2013/5/19 0:13,3.7,3,3.8,4,3.5,4
2013/5/19 0:14,3.6,3,3.7,4,3.3,4
2013/5/19 0:15,3.5,4,3.6,4,3.2,4
2013/5/19 0:16,3.4,3,3.5,4,4.3,3
2013/5/19 0:17,3.3,3,3.4,4,4.8,3
2013/5/19 0:18,3.1,4,3.3,4,3.1,3
2013/5/19 0:19,2.9,4,3.1,4,4.5,3
2013/5/19 0:20,2.9,3,3,4,5.5,2
2013/5/19 0:21,3,3,3,3,6.1,3
2013/5/19 0:22,3,3,3,3,4.8,2
2013/5/19 0:23,3.1,3,3.1,3,5.6,4
2013/5/19 0:24,3.2,3,3.2,3,4.2,4
2013/5/19 0:25,3.1,3,3.2,4,3.8,3
2013/5/19 0:26,3.2,3,3.2,3,4.3,3
2013/5/19 0:27,3.4,3,3.4,3,6.1,4
2013/5/19 0:28,3.5,3,3.5,3,4.9,3
2013/5/19 0:29,3.4,3,3.5,3,3.6,3
2013/5/19 0:30,3.3,3,3.4,3,4.3,4
2013/5/19 0:31,3,3,3.3,3,3.6,3
2013/5/19 0:32,2.9,3,3,3,3.3,3
2013/5/19 0:33,2.9,3,3,3,4.5,3
2013/5/19 0:34,3,3,3,3,4.5,4
2013/5/19 0:35,3,3,3,3,5.2,3
2013/5/19 0:36,3,3,3,3,3.8,4
2013/5/19 0:37,2.7,3,3,3,3.9,3
2013/5/19 0:38,2.7,3,2.7,3,3.9,2
2013/5/19 0:39,2.8,3,2.8,3,4.5,2
2013/5/19 0:40,2.8,3,2.9,3,5.1,3
2013/5/19 0:41,2.9,3,2.9,3,3.8,4
2013/5/19 0:42,2.9,3,2.9,3,3.1,3
2013/5/19 0:43,2.8,3,2.9,3,2.9,4
2013/5/19 0:44,2.7,3,2.8,3,4.1,5
2013/5/19 0:45,2.7,3,2.8,3,4.3,4
2013/5/19 0:46,2.7,3,2.7,3,4.3,4
2013/5/19 0:47,2.7,4,2.7,3,3.9,6
2013/5/19 0:48,2.6,4,2.7,3,3.5,4
2013/5/19 0:49,2.6,4,2.7,3,4.7,5
2013/5/19 0:50,2.6,4,2.6,3,5.1,4
2013/5/19 0:51,2.6,4,2.6,3,4.3,3
2013/5/19 0:52,2.7,4,2.7,3,4.4,2
2013/5/19 0:53,2.8,4,2.8,3,4.2,4
2013/5/19 0:54,2.8,3,2.8,3,3.7,3
2013/5/19 0:55,2.6,3,2.8,4,3.6,3
2013/5/19 0:56,2.7,3,2.7,4,4.3,5
2013/5/19 0:57,2.8,3,2.8,4,3.9,3
2013/5/19 0:58,2.8,3,2.8,4,4.2,4
2013/5/19 0:59,2.8,3,2.8,4,5.1,4
2013/5/19 1:00,2.6,3,2.8,4,3.5,3
2013/5/19 1:01,2.6,3,2.6,4,3.7,3
2013/5/19 1:02,2.6,3,2.6,4,3.7,3
2013/5/19 1:03,2.5,3,2.6,4,3.5,3
2013/5/19 1:04,2.4,3,2.5,3,3.7,3
2013/5/19 1:05,2.5,3,2.5,3,3.9,3
2013/5/19 1:06,2.4,3,2.5,3,3.2,3
2013/5/19 1:07,2.4,3,2.4,3,4.5,5
2013/5/19 1:08,2.3,3,2.4,3,3.6,5
2013/5/19 1:09,2.2,3,2.3,3,2.7,4
2013/5/19 1:10,2.1,3,2.2,3,1.9,2
2013/5/19 1:11,2.1,3,2.1,3,3.7,3
2013/5/19 1:12,2.1,3,2.1,3,3.3,4
2013/5/19 1:13,2.1,3,2.1,3,2.7,4
2013/5/19 1:14,2.1,4,2.1,3,3,3
2013/5/19 1:15,2.1,4,2.1,3,2.6,2
2013/5/19 1:16,2.1,4,2.1,3,4.1,4
2013/5/19 1:17,2.1,3,2.2,3,3.6,4
2013/5/19 1:18,2.1,3,2.1,3,3.3,4
2013/5/19 1:19,2.1,3,2.1,3,3,3
2013/5/19 1:20,2.2,3,2.2,4,3.5,1
2013/5/19 1:21,2.1,3,2.2,4,3,4
2013/5/19 1:22,2,3,2.1,4,2.2,3
2013/5/19 1:23,2,3,2,4,3.1,3
2013/5/19 1:24,2.1,3,2.1,4,4.9,4
2013/5/19 1:25,2.2,3,2.2,4,3.5,4
2013/5/19 1:26,2.1,3,2.2,4,3.2,5
2013/5/19 1:27,2.1,3,2.1,3,4.2,3
2013/5/19 1:28,2.1,3,2.1,3,2.7,3
2013/5/19 1:29,2.1,3,2.1,3,2.5,4
2013/5/19 1:30,2.1,3,2.1,3,3.3,2
2013/5/19 1:31,2.2,3,2.2,3,3.2,3
2013/5/19 1:32,2.2,3,2.2,3,2.5,3
2013/5/19 1:33,2.2,3,2.2,3,2.6,3
2013/5/19 1:34,2,3,2.2,3,2.1,3
2013/5/19 1:35,1.8,3,1.9,3,1.8,2
2013/5/19 1:36,1.7,2,1.8,3,2,2
2013/5/19 1:37,1.6,2,1.7,3,2.4,3
2013/5/19 1:38,1.7,3,1.7,3,2.9,3
2013/5/19 1:39,1.6,3,1.6,3,2.6,2
2013/5/19 1:40,1.6,3,1.7,3,3.5,3
2013/5/19 1:41,1.6,3,1.6,3,4.7,3
2013/5/19 1:42,1.7,2,1.7,3,4.2,3
2013/5/19 1:43,1.8,2,1.8,3,3.7,3
2013/5/19 1:44,1.9,2,1.9,3,3,2
2013/5/19 1:45,2.1,3,2.1,3,4.3,2
2013/5/19 1:46,2.3,3,2.3,3,4.7,3
2013/5/19 1:47,2.3,3,2.4,3,3.8,3
2013/5/19 1:48,2.4,3,2.4,3,3.6,3
2013/5/19 1:49,2.5,3,2.5,3,2.7,4
2013/5/19 1:50,2.5,3,2.5,3,2.5,3
2013/5/19 1:51,2.4,3,2.5,3,2.7,3
2013/5/19 1:52,2.4,3,2.4,3,3.1,3
2013/5/19 1:53,2.3,3,2.4,3,2.6,3
2013/5/19 1:54,2.3,3,2.3,3,2.5,2
2013/5/19 1:55,2.2,3,2.3,3,3,3
2013/5/19 1:56,2.1,3,2.2,3,2.6,3
2013/5/19 1:57,2,3,2,3,2.5,3
2013/5/19 1:58,1.9,3,2,3,2.9,3
2013/5/19 1:59,1.9,3,1.9,3,2.6,2
2013/5/19 2:00,2,3,2,3,3,3
2013/5/19 2:01,2,3,2,3,3.1,5
2013/5/19 2:02,1.9,3,2,3,3.6,3
2013/5/19 2:03,2,3,2,3,2.7,2
2013/5/19 2:04,1.9,3,2,3,2.1,2
2013/5/19 2:05,2,3,2,3,3.2,3
2013/5/19 2:06,2,3,2,3,3.1,2
2013/5/19 2:07,2,3,2,3,2.6,1
2013/5/19 2:08,2.1,3,2.1,3,3.7,3
2013/5/19 2:09,2.2,3,2.2,3,4.4,3
2013/5/19 2:10,2.2,3,2.2,3,3.6,3
2013/5/19 2:11,2.2,3,2.2,3,3,4
2013/5/19 2:12,2.2,3,2.2,3,3.8,3
2013/5/19 2:13,2.3,3,2.3,3,4.1,3
2013/5/19 2:14,2.4,3,2.4,3,3.7,2
2013/5/19 2:15,2.5,3,2.5,3,4.4,4
2013/5/19 2:16,2.5,3,2.5,3,3.5,3
2013/5/19 2:17,2.5,3,2.6,3,3.5,3
2013/5/19 2:18,2.5,3,2.5,3,4.1,2
2013/5/19 2:19,2.5,3,2.5,3,4.5,4
2013/5/19 2:20,2.5,3,2.6,3,2.9,2
2013/5/19 2:21,2.5,3,2.5,3,3,3
2013/5/19 2:22,2.5,3,2.6,3,3.5,2
2013/5/19 2:23,2.4,3,2.5,3,3.6,3
2013/5/19 2:24,2.5,3,2.5,3,3.6,2
2013/5/19 2:25,2.4,3,2.5,3,3.1,3
2013/5/19 2:26,2.4,3,2.4,3,3.7,3
2013/5/19 2:27,2.4,3,2.4,3,3.7,3
2013/5/19 2:28,2.5,3,2.5,3,3.6,2
2013/5/19 2:29,2.4,3,2.5,3,3.1,3
2013/5/19 2:30,2.4,3,2.4,3,3.7,2
2013/5/19 2:31,2.4,3,2.5,3,3.8,3
2013/5/19 2:32,2.5,3,2.5,3,3.9,3
2013/5/19 2:33,2.6,3,2.6,3,4.2,3
2013/5/19 2:34,2.6,3,2.6,3,4.1,2
2013/5/19 2:35,2.6,3,2.6,3,4.4,4
2013/5/19 2:36,2.7,3,2.7,3,3.7,3
2013/5/19 2:37,2.7,3,2.7,3,3.5,3
2013/5/19 2:38,2.8,3,2.8,3,5.1,3
2013/5/19 2:39,2.9,3,2.9,3,3.8,3
2013/5/19 2:40,2.8,3,2.9,3,3,3
2013/5/19 2:41,2.7,3,2.8,3,3.8,3
2013/5/19 2:42,2.7,3,2.8,3,3.8,3
2013/5/19 2:43,2.6,3,2.7,3,4.1,3
2013/5/19 2:44,2.5,3,2.5,3,4.1,2
2013/5/19 2:45,2.6,3,2.6,3,5,3
2013/5/19 2:46,2.6,3,2.6,3,3.9,2
2013/5/19 2:47,2.7,3,2.7,3,4.9,3
2013/5/19 2:48,2.6,3,2.7,3,6,4
2013/5/19 2:49,2.6,3,2.6,3,3.2,3
2013/5/19 2:50,2.8,3,2.8,3,4.4,3
2013/5/19 2:51,2.9,3,2.9,3,4.7,4
2013/5/19 2:52,2.9,3,2.9,3,4.8,3
2013/5/19 2:53,2.9,3,2.9,3,2.7,4
2013/5/19 2:54,2.9,3,2.9,3,5.1,3
2013/5/19 2:55,2.8,3,2.9,3,4.1,3
2013/5/19 2:56,2.9,3,2.9,3,4.2,4
2013/5/19 2:57,2.8,3,2.8,3,4.8,4
2013/5/19 2:58,2.9,3,2.9,3,4.9,3
2013/5/19 2:59,3,3,3,3,4.9,3
2013/5/19 3:00,2.9,3,3,3,3.3,3
2013/5/19 3:01,2.9,3,2.9,3,4.1,3
2013/5/19 3:02,2.9,3,2.9,3,3.2,4
2013/5/19 3:03,2.9,3,2.9,3,2.4,3
2013/5/19 3:04,2.7,3,2.9,3,2.5,3
2013/5/19 3:05,2.7,3,2.8,3,4.3,3
2013/5/19 3:06,2.7,3,2.7,3,3.5,4
2013/5/19 3:07,2.6,3,2.7,3,4.7,3
2013/5/19 3:08,2.5,3,2.6,3,4.1,2
2013/5/19 3:09,2.3,3,2.5,3,3.2,3
2013/5/19 3:10,2.3,3,2.3,3,2.9,2
2013/5/19 3:11,2.1,3,2.2,3,2.6,3
2013/5/19 3:12,2.2,3,2.2,3,3.8,3
2013/5/19 3:13,2.2,3,2.2,3,2.6,3
2013/5/19 3:14,2.2,3,2.2,3,2.9,3
2013/5/19 3:15,2.2,3,2.2,3,4.2,3
2013/5/19 3:16,2.2,3,2.2,3,3.1,3
2013/5/19 3:17,2.1,3,2.2,3,2.5,4
2013/5/19 3:18,2,3,2.1,3,2,3
2013/5/19 3:19,1.9,3,2,3,3.6,3
2013/5/19 3:20,2.1,3,2.1,3,4.7,4
2013/5/19 3:21,2.2,4,2.2,3,4.1,4
2013/5/19 3:22,2.2,4,2.2,3,4.2,5
2013/5/19 3:23,2.2,4,2.3,4,3.1,3
2013/5/19 3:24,2.3,4,2.3,4,3.7,4
2013/5/19 3:25,2.3,4,2.3,4,4.3,4
2013/5/19 3:26,2.5,4,2.5,4,4.8,4
2013/5/19 3:27,2.5,4,2.5,4,3.2,4
2013/5/19 3:28,2.6,4,2.6,4,3.9,4
2013/5/19 3:29,2.7,4,2.7,4,3.7,3
2013/5/19 3:30,2.7,4,2.7,4,4.3,2
2013/5/19 3:31,2.6,3,2.7,4,3.3,4
2013/5/19 3:32,2.5,3,2.6,4,2.2,4
2013/5/19 3:33,2.6,3,2.6,4,4.3,3
2013/5/19 3:34,2.6,3,2.6,4,3.6,4
2013/5/19 3:35,2.5,4,2.6,4,2.7,3
2013/5/19 3:36,2.4,4,2.5,4,4.3,4
2013/5/19 3:37,2.4,4,2.4,4,3,5
2013/5/19 3:38,2.4,4,2.4,4,3.8,3
2013/5/19 3:39,2.4,4,2.5,4,3.7,3
2013/5/19 3:40,2.3,4,2.4,3,3.2,4
2013/5/19 3:41,2.3,4,2.3,3,2.9,3
2013/5/19 3:42,2.4,4,2.4,3,3.5,3
2013/5/19 3:43,2.3,4,2.4,3,3.5,3
2013/5/19 3:44,2.4,4,2.4,3,4.9,4
2013/5/19 3:45,2.5,4,2.5,4,4.8,3
2013/5/19 3:46,2.5,4,2.5,4,4.2,4
2013/5/19 3:47,2.6,4,2.7,4,5.7,6
2013/5/19 3:48,2.7,4,2.7,4,4.9,2
2013/5/19 3:49,2.9,4,2.9,4,4.8,4
2013/5/19 3:50,2.9,4,2.9,4,3.6,4
2013/5/19 3:51,2.9,4,2.9,4,2.9,4
2013/5/19 3:52,2.9,4,2.9,4,3,5
2013/5/19 3:53,2.9,4,2.9,4,3.2,3
2013/5/19 3:54,2.7,4,2.8,4,2.9,4
2013/5/19 3:55,2.6,4,2.7,4,3.7,5
2013/5/19 3:56,2.5,4,2.5,4,3,5
2013/5/19 3:57,2.3,4,2.5,4,2.5,2
2013/5/19 3:58,2.2,4,2.3,4,3,4
2013/5/19 3:59,2.1,4,2.2,4,4.2,4
2013/5/19 4:00,2.1,4,2.1,4,3.7,4
2013/5/19 4:01,2.2,4,2.2,4,3.3,4
2013/5/19 4:02,2.2,4,2.2,4,3.2,3
2013/5/19 4:03,2.2,4,2.2,4,2.6,6
2013/5/19 4:04,2.2,4,2.2,4,3.5,4
2013/5/19 4:05,2.2,4,2.2,4,3.9,3
2013/5/19 4:06,2.3,4,2.3,4,3.5,3
2013/5/19 4:07,2.3,4,2.3,4,3.6,4
2013/5/19 4:08,2.3,4,2.4,4,3.5,4
2013/5/19 4:09,2.3,4,2.4,4,3.6,4
2013/5/19 4:10,2.3,4,2.4,4,4.2,3
2013/5/19 4:11,2.2,4,2.3,4,2.9,3
2013/5/19 4:12,2.3,3,2.3,4,4.3,3
2013/5/19 4:13,2.5,3,2.5,3,5.8,4
2013/5/19 4:14,2.6,3,2.6,3,4.3,4
2013/5/19 4:15,2.7,4,2.7,4,4.2,4
2013/5/19 4:16,2.7,4,2.7,4,3.2,5
2013/5/19 4:17,2.7,3,2.7,4,3.2,3
2013/5/19 4:18,2.8,3,2.8,3,3.8,3
2013/5/19 4:19,2.8,3,2.8,3,4.3,3
2013/5/19 4:20,2.8,4,2.8,3,4.4,3
2013/5/19 4:21,2.9,4,2.9,4,3.7,5
2013/5/19 4:22,3,4,3,4,3.9,3
2013/5/19 4:23,2.7,4,3,4,3.9,5
2013/5/19 4:24,2.7,4,2.7,4,3.6,5
2013/5/19 4:25,2.7,4,2.7,4,3.9,3
2013/5/19 4:26,2.7,4,2.7,4,4.2,4
2013/5/19 4:27,2.8,4,2.8,4,3.6,4
2013/5/19 4:28,2.6,4,2.8,4,2.6,5
2013/5/19 4:29,2.6,4,2.7,4,3.6,5
2013/5/19 4:30,2.4,4,2.6,4,2.9,4
2013/5/19 4:31,2.3,4,2.4,4,1.6,4
2013/5/19 4:32,2.1,4,2.3,4,2.5,3
2013/5/19 4:33,2.1,4,2.1,4,3,4
2013/5/19 4:34,2,4,2.1,4,2.6,6
2013/5/19 4:35,1.9,5,2,4,3,4
2013/5/19 4:36,1.8,4,1.9,4,3.2,4
2013/5/19 4:37,1.7,4,1.7,4,2.5,3
2013/5/19 4:38,1.7,4,1.7,4,3.3,2
2013/5/19 4:39,1.7,4,1.7,4,4.2,3
2013/5/19 4:40,1.8,4,1.8,4,3.1,3
2013/5/19 4:41,1.9,4,1.9,4,3,4
2013/5/19 4:42,2,4,2,4,3.5,4
2013/5/19 4:43,2,3,2.1,4,2.5,4
2013/5/19 4:44,2,3,2,4,2.5,2
2013/5/19 4:45,2.1,3,2.1,4,4.1,4
2013/5/19 4:46,2.2,3,2.2,3,3.5,4
2013/5/19 4:47,2.3,3,2.3,3,3,4
2013/5/19 4:48,2.4,3,2.4,3,3,4
2013/5/19 4:49,2.3,3,2.4,3,3.2,3
2013/5/19 4:50,2.2,3,2.3,3,4.5,2
2013/5/19 4:51,2.2,3,2.3,3,4.4,4
2013/5/19 4:52,2.2,3,2.2,3,3.2,3
2013/5/19 4:53,2.2,3,2.2,3,3.5,3
2013/5/19 4:54,2.3,3,2.3,3,3.3,4
2013/5/19 4:55,2.3,3,2.3,3,3.5,3
2013/5/19 4:56,2.3,3,2.3,3,3.2,3
2013/5/19 4:57,2.2,3,2.3,3,3.7,3
2013/5/19 4:58,2.2,3,2.2,3,3.3,3
2013/5/19 4:59,2.3,3,2.3,3,3.6,3
2013/5/19 5:00,2.3,3,2.4,3,3.2,3
2013/5/19 5:01,2.3,3,2.3,3,3.2,3
2013/5/19 5:02,2.4,3,2.4,3,3.9,3
2013/5/19 5:03,2.4,3,2.4,3,3.6,3
2013/5/19 5:04,2.4,3,2.5,3,3.6,3
2013/5/19 5:05,2.3,3,2.4,3,2.6,3
2013/5/19 5:06,2.4,3,2.4,3,4.3,3
2013/5/19 5:07,2.5,3,2.5,3,3.7,5
2013/5/19 5:08,2.4,3,2.4,3,3.1,4
2013/5/19 5:09,2.4,3,2.4,3,2.4,4
2013/5/19 5:10,2.2,3,2.3,3,2,2
2013/5/19 5:11,2.2,3,2.2,3,2,4
2013/5/19 5:12,2,3,2.2,3,1.6,4
2013/5/19 5:13,1.9,3,2,3,2.5,2
2013/5/19 5:14,1.9,3,1.9,3,3.3,3
2013/5/19 5:15,2,3,2,3,3,3
2013/5/19 5:16,1.8,3,2,3,2.5,3
2013/5/19 5:17,1.8,3,1.8,3,3.2,3
2013/5/19 5:18,1.8,3,1.8,3,4.1,3
2013/5/19 5:19,1.9,3,1.9,3,3.9,3
2013/5/19 5:20,2.1,3,2.1,3,3.8,3
2013/5/19 5:21,2.2,3,2.2,3,3.3,3
2013/5/19 5:22,2.4,3,2.4,3,3.9,3
2013/5/19 5:23,2.5,3,2.5,3,3.9,3
2013/5/19 5:24,2.5,3,2.5,3,4.2,3
2013/5/19 5:25,2.6,3,2.6,3,4.4,3
2013/5/19 5:26,2.6,3,2.6,3,3.8,3
2013/5/19 5:27,2.7,3,2.7,3,4.5,3
2013/5/19 5:28,2.7,3,2.8,3,3.6,3
2013/5/19 5:29,2.6,3,2.7,3,3.3,3
2013/5/19 5:30,2.5,3,2.6,3,2.9,3
2013/5/19 5:31,2.5,3,2.5,3,3.8,1
2013/5/19 5:32,2.5,3,2.5,3,4.2,2
2013/5/19 5:33,2.5,3,2.5,3,4.3,4
2013/5/19 5:34,2.5,3,2.5,3,3.7,3
2013/5/19 5:35,2.5,3,2.5,3,3.6,4
2013/5/19 5:36,2.5,3,2.6,3,4.1,3
2013/5/19 5:37,2.6,3,2.6,3,5.4,4
2013/5/19 5:38,2.7,3,2.7,3,4.9,3
2013/5/19 5:39,2.9,3,2.9,3,5.6,3
2013/5/19 5:40,3,3,3,3,4.7,3
2013/5/19 5:41,3.1,3,3.1,3,4.4,3
2013/5/19 5:42,3.2,3,3.2,3,4.4,3
2013/5/19 5:43,3.3,3,3.3,3,4.4,3
2013/5/19 5:44,3.3,3,3.3,3,3.6,3
2013/5/19 5:45,3.3,3,3.3,3,4.2,3
2013/5/19 5:46,3.2,3,3.2,3,4.1,4
2013/5/19 5:47,2.9,3,3.2,3,3,3
2013/5/19 5:48,2.9,3,2.9,3,4.5,2
2013/5/19 5:49,2.8,3,2.9,3,3.7,2
2013/5/19 5:50,2.7,3,2.8,3,4.2,3
2013/5/19 5:51,2.7,3,2.8,3,4.5,4
2013/5/19 5:52,2.8,3,2.8,3,4.8,3
2013/5/19 5:53,2.6,3,2.8,3,3.2,4
2013/5/19 5:54,2.7,3,2.7,3,4.5,3
2013/5/19 5:55,2.6,3,2.7,3,3.5,2
2013/5/19 5:56,2.7,3,2.7,3,5,4
2013/5/19 5:57,3,3,3,3,4.3,4
2013/5/19 5:58,2.9,3,3,3,4.1,2
2013/5/19 5:59,2.9,3,3,3,3.6,3
2013/5/19 6:00,2.9,3,2.9,3,2.7,5
2013/5/19 6:01,2.8,3,2.9,3,3.2,4
2013/5/19 6:02,2.7,3,2.8,3,4.5,3
2013/5/19 6:03,2.8,3,2.8,3,4.2,4
2013/5/19 6:04,2.8,3,2.8,3,4.2,3
2013/5/19 6:05,2.8,3,2.8,3,3.8,3
2013/5/19 6:06,2.7,3,2.8,3,4.5,3
2013/5/19 6:07,2.6,3,2.7,3,3,3
2013/5/19 6:08,2.6,3,2.6,3,3.7,4
2013/5/19 6:09,2.6,3,2.6,3,3.7,3
2013/5/19 6:10,2.5,3,2.5,3,3,4
2013/5/19 6:11,2.5,3,2.5,3,3.2,3
2013/5/19 6:12,2.5,3,2.5,3,3.3,3
2013/5/19 6:13,2.5,3,2.5,3,4.4,3
2013/5/19 6:14,2.5,3,2.6,3,4.8,3
2013/5/19 6:15,2.5,3,2.5,3,3.3,3
2013/5/19 6:16,2.4,3,2.5,3,3.5,3
2013/5/19 6:17,2.5,3,2.5,3,3.7,4
2013/5/19 6:18,2.5,3,2.5,3,4.2,3
2013/5/19 6:19,2.4,3,2.5,3,3,4
2013/5/19 6:20,2.5,3,2.5,3,4.5,3
2013/5/19 6:21,2.6,3,2.6,3,3.7,3
2013/5/19 6:22,2.7,3,2.7,3,6,3
2013/5/19 6:23,2.8,3,2.8,3,5.8,3
2013/5/19 6:24,2.8,3,2.8,3,5.6,3
2013/5/19 6:25,2.8,3,2.8,3,3.2,3
2013/5/19 6:26,2.9,3,2.9,3,3.6,4
2013/5/19 6:27,2.8,3,2.9,3,3.9,3
2013/5/19 6:28,2.8,3,2.8,3,4.1,3
2013/5/19 6:29,3,3,3,3,4.7,4
2013/5/19 6:30,3,3,3,3,4.9,3
2013/5/19 6:31,3,3,3,3,4.1,3
2013/5/19 6:32,2.9,3,3,3,4.2,3
2013/5/19 6:33,2.9,3,3,3,4.9,2
2013/5/19 6:34,2.9,3,2.9,3,4.3,3
2013/5/19 6:35,2.9,3,2.9,3,3.5,4
2013/5/19 6:36,2.8,3,2.9,3,3.3,4
2013/5/19 6:37,2.9,3,2.9,3,4.1,3
2013/5/19 6:38,2.8,4,2.8,3,3.3,4
2013/5/19 6:39,2.7,4,2.8,3,3.2,4
2013/5/19 6:40,2.5,4,2.6,3,2.1,4
2013/5/19 6:41,2.5,4,2.5,3,3.9,4
2013/5/19 6:42,2.4,4,2.5,3,3.5,4
2013/5/19 6:43,2.3,4,2.4,3,3.6,4
2013/5/19 6:44,2.3,4,2.3,3,4.2,5
2013/5/19 6:45,2.2,4,2.3,3,3.3,3
2013/5/19 6:46,2.2,4,2.2,3,3.6,4
2013/5/19 6:47,2.1,4,2.2,3,3.6,5
2013/5/19 6:48,2.1,4,2.1,4,3.1,4
2013/5/19 6:49,2.2,4,2.2,4,3.3,3
2013/5/19 6:50,2.3,4,2.3,4,3.8,5
2013/5/19 6:51,2.3,4,2.3,4,3.5,4
2013/5/19 6:52,2.4,4,2.4,4,3.7,2
2013/5/19 6:53,2.4,4,2.4,4,4.4,3
2013/5/19 6:54,2.5,4,2.5,4,5.7,4
2013/5/19 6:55,2.7,4,2.7,4,5.7,4
2013/5/19 6:56,2.8,4,2.8,4,4.9,4
2013/5/19 6:57,3,4,3,4,4.7,3
2013/5/19 6:58,3.1,4,3.1,4,4.1,4
2013/5/19 6:59,3.1,4,3.1,4,3.7,5
2013/5/19 7:00,3.1,4,3.1,4,3.9,5
2013/5/19 7:01,3.1,4,3.1,4,4.3,3
2013/5/19 7:02,3.1,4,3.1,4,4.2,3
2013/5/19 7:03,3.2,4,3.2,4,5.2,4
2013/5/19 7:04,3,4,3.2,4,2.9,6
2013/5/19 7:05,2.8,4,2.9,4,3.9,4
2013/5/19 7:06,2.9,4,2.9,4,5.8,3
2013/5/19 7:07,2.8,4,2.9,4,3.6,3
2013/5/19 7:08,2.8,4,2.8,4,4.2,4
2013/5/19 7:09,2.8,4,2.8,4,4.8,4
2013/5/19 7:10,2.8,4,2.8,4,3.6,3
2013/5/19 7:11,2.8,4,2.8,4,3.7,3
2013/5/19 7:12,2.7,4,2.8,4,3.8,3
2013/5/19 7:13,2.6,4,2.7,4,3.7,5
2013/5/19 7:14,2.6,4,2.6,4,3.3,3
2013/5/19 7:15,2.8,4,2.8,4,5.2,3
2013/5/19 7:16,2.7,4,2.8,4,5.5,4
2013/5/19 7:17,2.7,4,2.8,4,5.7,3
2013/5/19 7:18,2.8,4,2.8,4,4.7,5
2013/5/19 7:19,2.8,4,2.9,4,4.7,5
2013/5/19 7:20,2.9,4,2.9,4,4.3,5
2013/5/19 7:21,2.8,4,2.9,4,3.9,3
2013/5/19 7:22,2.8,4,2.8,4,4.2,6
2013/5/19 7:23,2.8,4,2.8,4,4.5,5
2013/5/19 7:24,2.9,4,2.9,4,3.6,6
2013/5/19 7:25,2.8,5,2.9,4,4.7,6
2013/5/19 7:26,2.7,5,2.8,4,4.5,7
2013/5/19 7:27,2.9,5,2.9,4,5.6,5
2013/5/19 7:28,2.9,5,2.9,4,5.5,3
2013/5/19 7:29,3,5,3,5,5.8,5
2013/5/19 7:30,3.2,5,3.2,5,6.2,4
2013/5/19 7:31,3.4,5,3.4,5,6,5
2013/5/19 7:32,3.5,5,3.5,5,5,4
2013/5/19 7:33,3.5,4,3.5,5,5.5,3
2013/5/19 7:34,3.5,4,3.5,5,4.3,3
2013/5/19 7:35,3.4,4,3.5,5,4.2,4
2013/5/19 7:36,3.4,4,3.4,5,4.9,4
2013/5/19 7:37,3.4,4,3.5,5,5.7,5
2013/5/19 7:38,3.4,4,3.4,5,5.6,4
2013/5/19 7:39,3.4,4,3.4,5,5.5,4
2013/5/19 7:40,3.4,4,3.4,5,5.6,4
2013/5/19 7:41,3.3,4,3.3,5,7,4
2013/5/19 7:42,3.4,4,3.4,5,6.1,4
2013/5/19 7:43,3.4,4,3.5,4,5.8,5
2013/5/19 7:44,3.6,4,3.6,4,6.8,5
2013/5/19 7:45,3.8,4,3.8,4,4.7,4
2013/5/19 7:46,3.8,4,3.8,4,4.9,3
2013/5/19 7:47,3.7,4,3.8,4,4.9,3
2013/5/19 7:48,3.6,4,3.7,4,3.6,5
2013/5/19 7:49,3.5,4,3.6,4,5.8,4
2013/5/19 7:50,3.5,4,3.5,4,5.1,6
2013/5/19 7:51,3.5,4,3.5,4,6,4
2013/5/19 7:52,3.4,4,3.5,4,4.7,4
2013/5/19 7:53,3.4,4,3.5,4,5,5
2013/5/19 7:54,3.4,4,3.4,4,5.1,4
2013/5/19 7:55,3.3,4,3.4,4,4.8,4
2013/5/19 7:56,3.3,4,3.3,4,4.8,6
2013/5/19 7:57,3.3,4,3.3,4,6.1,4
2013/5/19 7:58,3.6,4,3.6,4,7,5
2013/5/19 7:59,3.8,5,3.8,4,6.5,4
2013/5/19 8:00,3.8,5,3.9,5,6.8,5
2013/5/19 8:01,4,5,4,5,7.5,6
2013/5/19 8:02,4,5,4,5,5.2,5
2013/5/19 8:03,4,5,4,5,6.4,6
2013/5/19 8:04,4,5,4,5,5.5,6
2013/5/19 8:05,4.2,5,4.2,5,6.1,5
2013/5/19 8:06,4.1,5,4.2,5,3.3,4
2013/5/19 8:07,4,5,4.1,5,3.1,5
2013/5/19 8:08,3.7,5,3.9,5,4.9,6
2013/5/19 8:09,3.6,5,3.7,5,5.8,6
2013/5/19 8:10,3.5,5,3.6,5,4.9,6
2013/5/19 8:11,3.3,5,3.5,5,4.4,4
2013/5/19 8:12,3.3,5,3.3,5,5,4
2013/5/19 8:13,3.2,5,3.3,5,3.9,5
2013/5/19 8:14,3.2,5,3.2,5,5,5
2013/5/19 8:15,3.1,5,3.2,5,5.7,5
2013/5/19 8:16,3.2,5,3.2,5,4.1,4
2013/5/19 8:17,3.3,5,3.3,5,4.4,3
2013/5/19 8:18,3.4,4,3.4,5,6.3,3
2013/5/19 8:19,3.5,4,3.5,5,6.8,3
2013/5/19 8:20,3.5,4,3.5,5,8.2,4
2013/5/19 8:21,3.5,4,3.5,4,4.3,4
2013/5/19 8:22,3.4,4,3.5,4,4.2,5
2013/5/19 8:23,3.4,4,3.5,4,4.8,5
2013/5/19 8:24,3.4,4,3.4,4,4.7,5
2013/5/19 8:25,3.3,4,3.4,4,3.9,6
2013/5/19 8:26,3.2,5,3.3,4,3.6,3
2013/5/19 8:27,3.2,5,3.2,4,3.9,4
2013/5/19 8:28,3,5,3.2,4,4.7,4
2013/5/19 8:29,3,5,3,4,6.8,5
2013/5/19 8:30,3,5,3,4,5.4,5
2013/5/19 8:31,3.1,5,3.1,4,5.5,5
2013/5/19 8:32,3.1,5,3.1,4,5.2,5
2013/5/19 8:33,3.2,5,3.2,4,5.7,5
2013/5/19 8:34,3.2,5,3.2,4,4.7,6
2013/5/19 8:35,3.3,5,3.3,4,4.4,4
2013/5/19 8:36,3.5,5,3.5,5,6.1,3
2013/5/19 8:37,3.6,5,3.6,5,5.6,5
2013/5/19 8:38,3.6,5,3.6,5,5.5,5
2013/5/19 8:39,3.6,5,3.7,5,6.3,4
2013/5/19 8:40,3.7,4,3.7,5,5.6,4
2013/5/19 8:41,3.7,4,3.7,5,5.6,4
2013/5/19 8:42,3.6,4,3.7,5,4.9,4
2013/5/19 8:43,3.7,4,3.7,5,4.9,4
2013/5/19 8:44,3.7,4,3.7,5,4.5,4
2013/5/19 8:45,3.8,4,3.8,4,7.2,5
2013/5/19 8:46,3.7,4,3.8,4,5.4,3
2013/5/19 8:47,3.6,4,3.7,4,4.3,5
2013/5/19 8:48,3.6,4,3.6,4,6,4
2013/5/19 8:49,3.6,4,3.6,4,6.7,4
2013/5/19 8:50,3.6,4,3.7,4,6.3,5
2013/5/19 8:51,3.5,5,3.6,4,3.6,5
2013/5/19 8:52,3.4,5,3.5,4,4.4,6
2013/5/19 8:53,3.3,5,3.4,4,3.6,6
2013/5/19 8:54,3.3,5,3.3,4,4.3,5
2013/5/19 8:55,3.1,5,3.3,4,4.4,5
2013/5/19 8:56,3.2,5,3.2,4,5,5
2013/5/19 8:57,3.4,5,3.4,4,6.8,5
2013/5/19 8:58,3.5,5,3.5,4,5.8,5
2013/5/19 8:59,3.5,5,3.5,4,5.5,5
2013/5/19 9:00,3.5,5,3.5,4,5.2,5
2013/5/19 9:01,3.6,5,3.6,5,5.1,5
2013/5/19 9:02,3.7,5,3.7,5,6.3,3
2013/5/19 9:03,3.9,5,3.9,5,5.8,5
2013/5/19 9:04,4,5,4,5,5.6,6
2013/5/19 9:05,4.1,5,4.1,5,4.9,5
2013/5/19 9:06,4.1,5,4.1,5,5.7,5
2013/5/19 9:07,4,5,4.1,5,6.2,5
2013/5/19 9:08,3.8,5,3.9,5,4.3,5
2013/5/19 9:09,3.6,5,3.8,5,3.9,4
2013/5/19 9:10,3.5,5,3.6,5,4.7,4
2013/5/19 9:11,3.5,5,3.5,5,5.1,5
2013/5/19 9:12,3.4,5,3.5,5,6,4
2013/5/19 9:13,3.2,5,3.4,5,5.1,6
2013/5/19 9:14,3.2,5,3.2,5,5.7,5
2013/5/19 9:15,3.2,5,3.3,5,5.4,4
2013/5/19 9:16,3.3,5,3.3,5,7,5
2013/5/19 9:17,3.4,5,3.4,5,6,5
2013/5/19 9:18,3.4,5,3.5,5,5.1,5
2013/5/19 9:19,3.6,5,3.6,5,5.8,5
2013/5/19 9:20,3.6,5,3.6,5,4.1,5
2013/5/19 9:21,3.5,5,3.6,5,3.3,4
2013/5/19 9:22,3.4,5,3.5,5,3.9,6
2013/5/19 9:23,3.4,5,3.4,5,4.3,5
2013/5/19 9:24,3.3,5,3.4,5,4.4,4
2013/5/19 9:25,3.4,5,3.4,5,6.4,3
2013/5/19 9:26,3.3,5,3.4,5,5.1,3
2013/5/19 9:27,3.2,5,3.3,5,4.5,5
2013/5/19 9:28,3.2,4,3.2,5,3.8,3
2013/5/19 9:29,3.1,4,3.2,5,4.9,5
2013/5/19 9:30,3.2,4,3.2,5,5.8,5
2013/5/19 9:31,3.1,4,3.2,5,3.2,5
2013/5/19 9:32,3.1,4,3.2,5,4.4,6
2013/5/19 9:33,3.1,4,3.1,5,3.8,5
2013/5/19 9:34,3.1,5,3.1,5,3.7,4
2013/5/19 9:35,2.8,5,3,5,2.7,5
2013/5/19 9:36,2.7,5,2.8,5,3,3
2013/5/19 9:37,2.6,5,2.7,5,4.7,4
2013/5/19 9:38,2.6,5,2.7,4,4.4,4
2013/5/19 9:39,2.6,5,2.6,4,3.9,3
2013/5/19 9:40,2.5,5,2.5,4,4.5,3
2013/5/19 9:41,2.6,4,2.6,4,4.9,3
2013/5/19 9:42,2.7,4,2.7,4,4.8,3
2013/5/19 9:43,2.7,4,2.7,4,4.3,4
2013/5/19 9:44,2.7,4,2.7,5,3.2,6
2013/5/19 9:45,2.8,4,2.8,5,4.7,5
2013/5/19 9:46,2.8,4,2.8,4,4.7,4
2013/5/19 9:47,2.8,4,2.8,4,3.2,4
2013/5/19 9:48,2.8,4,2.8,4,4.2,3
2013/5/19 9:49,2.8,4,2.9,4,3.6,4
2013/5/19 9:50,2.8,4,2.8,4,3.6,3
2013/5/19 9:51,2.7,4,2.8,4,3.5,4
2013/5/19 9:52,2.7,4,2.7,4,4.7,5
2013/5/19 9:53,2.7,4,2.7,4,4.3,3
2013/5/19 9:54,2.7,3,2.7,4,3.5,3
2013/5/19 9:55,2.6,3,2.7,4,3.9,3
2013/5/19 9:56,2.7,3,2.7,4,5.1,2
2013/5/19 9:57,2.8,3,2.8,4,4.5,3
2013/5/19 9:58,2.8,3,2.8,4,3.9,2
2013/5/19 9:59,3,3,3,3,4.9,3
2013/5/19 10:00,3,3,3,3,4.4,3
2013/5/19 10:01,3,3,3,3,3.3,4
2013/5/19 10:02,2.9,3,3,3,3.9,3
2013/5/19 10:03,2.9,3,2.9,3,3.5,3
2013/5/19 10:04,2.8,3,2.9,3,2.9,3
2013/5/19 10:05,2.9,3,2.9,3,3.5,4
2013/5/19 10:06,2.8,3,2.9,3,3.9,4
2013/5/19 10:07,2.6,3,2.8,3,2.7,3
2013/5/19 10:08,2.5,3,2.6,3,3.5,4
2013/5/19 10:09,2.5,3,2.5,3,3,3
2013/5/19 10:10,2.3,3,2.5,3,2.9,3
2013/5/19 10:11,2.3,3,2.3,3,2.7,4
2013/5/19 10:12,2.2,3,2.2,3,2.2,2
2013/5/19 10:13,2.2,3,2.2,3,3.3,4
2013/5/19 10:14,2.2,3,2.2,3,3,3
2013/5/19 10:15,2.2,3,2.2,3,3,3
2013/5/19 10:16,2.2,3,2.2,3,3.3,4
2013/5/19 10:17,2.2,3,2.2,3,2.5,3
2013/5/19 10:18,2.2,3,2.2,3,3.1,3
2013/5/19 10:19,2.1,3,2.2,3,2.7,3
2013/5/19 10:20,2.1,3,2.1,3,3.8,4
2013/5/19 10:21,2.2,3,2.2,3,2.7,3
2013/5/19 10:22,2.3,3,2.3,3,3,4
2013/5/19 10:23,2.2,3,2.3,3,2.9,4
2013/5/19 10:24,2.1,3,2.2,3,2.9,4
2013/5/19 10:25,2.1,3,2.2,3,2.7,3
2013/5/19 10:26,2,3,2.1,3,2.7,3
2013/5/19 10:27,2.1,3,2.1,3,3.5,2
2013/5/19 10:28,2.1,3,2.1,3,3.1,3
2013/5/19 10:29,2.2,3,2.2,3,3.2,4
2013/5/19 10:30,2.2,3,2.2,3,3,3
2013/5/19 10:31,2.2,3,2.2,3,2.9,4
2013/5/19 10:32,2.2,3,2.2,3,3.1,3
2013/5/19 10:33,2.2,3,2.2,3,3.2,4
2013/5/19 10:34,2.1,3,2.2,3,2.5,3
2013/5/19 10:35,2.1,3,2.1,3,2.2,3
2013/5/19 10:36,2,3,2.1,3,2,3
2013/5/19 10:37,2,4,2,3,2.2,4
2013/5/19 10:38,1.9,4,2,3,2.5,5
2013/5/19 10:39,1.8,4,1.9,3,2.7,4
2013/5/19 10:40,1.7,4,1.8,3,2.5,5
2013/5/19 10:41,1.7,4,1.7,3,2,4
2013/5/19 10:42,1.6,4,1.6,3,2.5,5
2013/5/19 10:43,1.5,4,1.6,3,2.7,4
2013/5/19 10:44,1.5,4,1.5,3,1.9,4
2013/5/19 10:45,1.5,4,1.5,3,3.2,3
2013/5/19 10:46,1.5,4,1.5,3,3.2,2
2013/5/19 10:47,1.6,4,1.6,4,4.3,3
2013/5/19 10:48,1.7,4,1.7,4,3.8,6
2013/5/19 10:49,1.8,4,1.8,4,3.1,4
2013/5/19 10:50,1.8,4,1.8,4,2.9,3
2013/5/19 10:51,1.9,4,1.9,4,3.8,3
2013/5/19 10:52,1.9,4,1.9,4,2.9,5
2013/5/19 10:53,2,4,2,4,2.5,4
2013/5/19 10:54,2.1,4,2.1,4,3.5,5
2013/5/19 10:55,2.1,4,2.1,4,3.1,5
2013/5/19 10:56,2.1,4,2.1,4,2.9,5
2013/5/19 10:57,1.9,4,2.1,4,2,4
2013/5/19 10:58,1.9,4,1.9,4,3.1,4
2013/5/19 10:59,1.9,4,1.9,4,3.2,3
2013/5/19 11:00,1.9,4,1.9,4,3.9,3
2013/5/19 11:01,2,4,2,4,3.2,4
2013/5/19 11:02,2,4,2,4,3.1,3
2013/5/19 11:03,2,4,2,4,3.6,4
2013/5/19 11:04,2.1,4,2.1,4,3.7,3
2013/5/19 11:05,2.1,4,2.1,4,2.9,4
2013/5/19 11:06,2.1,4,2.1,4,2.4,3
2013/5/19 11:07,2.1,4,2.1,4,2.5,4
2013/5/19 11:08,2.1,3,2.1,4,3,4
2013/5/19 11:09,2.1,3,2.1,4,3.3,2
2013/5/19 11:10,2.1,3,2.1,4,3.6,3
2013/5/19 11:11,2.1,3,2.1,4,3.8,3
2013/5/19 11:12,2.2,3,2.2,3,3.7,3
2013/5/19 11:13,2.2,3,2.2,3,3.3,3
2013/5/19 11:14,2.2,3,2.2,3,4.3,3
2013/5/19 11:15,2.2,3,2.2,3,3.7,3
2013/5/19 11:16,2.3,3,2.3,3,3.7,3
2013/5/19 11:17,2.4,3,2.4,3,3.3,3
2013/5/19 11:18,2.4,2,2.4,3,3.5,3
2013/5/19 11:19,2.4,3,2.4,3,3.5,3
2013/5/19 11:20,2.3,3,2.4,3,3.3,3
2013/5/19 11:21,2.2,3,2.3,3,2.7,2
2013/5/19 11:22,2.2,2,2.2,3,3.2,3
2013/5/19 11:23,2.1,2,2.2,3,3.2,2
2013/5/19 11:24,2,2,2.1,3,3.1,3
2013/5/19 11:25,2,2,2.1,3,3.5,2
2013/5/19 11:26,2,2,2.1,3,3.5,3
2013/5/19 11:27,2,2,2,3,3.6,3
2013/5/19 11:28,2.1,2,2.1,2,3.6,3
2013/5/19 11:29,2,2,2.1,3,2.9,2
2013/5/19 11:30,2.1,2,2.1,3,3.9,3
2013/5/19 11:31,2.3,2,2.3,2,4.3,3
2013/5/19 11:32,2.3,2,2.3,2,3.7,3
2013/5/19 11:33,2.5,3,2.5,2,4.4,3
2013/5/19 11:34,2.5,3,2.5,2,3.7,3
2013/5/19 11:35,2.5,3,2.5,2,3.8,3
2013/5/19 11:36,2.6,3,2.6,3,4.1,2
2013/5/19 11:37,2.6,3,2.6,3,4.4,3
2013/5/19 11:38,2.7,3,2.7,3,4.4,3
2013/5/19 11:39,2.8,3,2.8,3,3.9,3
2013/5/19 11:40,2.8,3,2.8,3,3.2,2
2013/5/19 11:41,2.7,3,2.7,3,3.6,3
2013/5/19 11:42,2.6,3,2.7,3,3,2
2013/5/19 11:43,2.6,3,2.6,3,3.1,3
2013/5/19 11:44,2.6,3,2.6,3,4.2,3
2013/5/19 11:45,2.7,3,2.7,3,4.8,3
2013/5/19 11:46,2.7,3,2.7,3,3.9,3
2013/5/19 11:47,2.7,3,2.7,3,3.5,3
2013/5/19 11:48,2.5,3,2.7,3,3.2,3